GW3740 Weather Reports


time (UTC)temp
C
wind
direction
speed
KPH
gust
KPH
rain 1hr
cm
rain 24hr
cm
rain mn
cm
humidity
%
barometer
mb
20260506045020 12 278 0.0 12.9 0.00 0.03 0.03 50 1014.0
20260506044518 12 250 0.0 8.0 0.00 0.03 0.03 50 1013.8
20260506044017 12 219 0.0 8.0 0.00 0.03 0.03 50 1013.8
20260506043517 12 213 0.0 8.0 0.00 0.03 0.03 50 1013.6
20260506043017 12 227 0.0 8.0 0.00 0.03 0.03 50 1013.6
20260506042516 12 256 0.0 12.9 0.00 0.03 0.03 49 1013.6
20260506042016 12 201 0.0 12.9 0.00 0.03 0.03 49 1013.5
20260506041516 12 211 0.0 8.0 0.00 0.03 0.03 49 1013.4
20260506041014 13 244 0.0 8.0 0.00 0.03 0.03 48 1013.3
20260506040514 13 238 0.0 8.0 0.00 0.03 0.03 48 1013.2
20260506040018 13 212 0.0 8.0 0.00 0.03 0.03 48 1013.2
20260506035514 13 223 0.0 9.7 0.00 0.03 0.03 48 1013.1
20260506035014 13 186 0.0 8.0 0.00 0.03 0.03 47 1013.0
20260506034514 13 204 0.0 3.2 0.00 0.03 0.03 47 1013.0
20260506034014 13 261 0.0 8.0 0.00 0.03 0.03 46 1013.0
20260506033513 13 225 0.0 8.0 0.00 0.03 0.03 45 1012.9
20260506033013 13 226 0.0 4.8 0.00 0.03 0.03 44 1012.9
20260506032513 13 226 0.0 8.0 0.00 0.03 0.03 43 1012.8
20260506032013 13 220 0.0 9.7 0.00 0.03 0.03 42 1012.7
20260506031513 13 246 0.0 9.7 0.00 0.03 0.03 42 1012.6
20260506031013 13 227 0.0 11.3 0.00 0.03 0.03 41 1012.6
20260506030513 13 220 0.0 11.3 0.00 0.03 0.03 41 1012.6
20260506030012 14 234 0.0 6.4 0.00 0.03 0.03 41 1012.5
20260506025513 14 254 0.0 8.0 0.00 0.03 0.03 41 1012.4
20260506025013 14 220 0.0 9.7 0.00 0.03 0.03 41 1012.3
20260506024512 14 232 1.6 9.7 0.00 0.03 0.03 41 1012.3
20260506024012 14 263 0.0 8.0 0.00 0.03 0.03 41 1012.2
20260506023511 14 221 0.0 8.0 0.00 0.03 0.03 41 1012.0
20260506023011 15 250 0.0 8.0 0.00 0.03 0.03 41 1012.0
20260506022511 15 249 0.0 11.3 0.00 0.03 0.03 41 1011.9
20260506022011 15 228 1.6 11.3 0.00 0.03 0.03 41 1011.9
20260506021511 15 204 0.0 12.9 0.00 0.03 0.03 41 1011.7
20260506021010 15 223 0.0 8.0 0.00 0.03 0.03 41 1011.7
20260506020512 15 223 0.0 11.3 0.00 0.03 0.03 40 1011.5
20260506020018 15 242 0.0 11.3 0.00 0.03 0.03 40 1011.3
20260506015511 15 228 0.0 12.9 0.00 0.03 0.03 40 1011.4
20260506015013 15 233 1.6 12.9 0.00 0.03 0.03 39 1011.2
20260506014510 15 259 0.0 11.3 0.00 0.03 0.03 39 1011.3
20260506014010 15 210 0.0 16.1 0.00 0.03 0.03 38 1011.1
20260506013514 15 223 1.6 16.1 0.00 0.03 0.03 38 1011.1
20260506013010 16 221 0.0 14.5 0.00 0.03 0.03 38 1011.0
20260506012510 16 238 0.0 20.9 0.00 0.03 0.03 37 1011.0
20260506012009 16 280 0.0 20.9 0.00 0.03 0.03 36 1011.0
20260506011509 16 257 1.6 19.3 0.00 0.03 0.03 36 1010.9
20260506011010 16 215 0.0 11.3 0.00 0.03 0.03 36 1010.8
20260506010509 16 181 1.6 11.3 0.00 0.03 0.03 35 1010.6
20260506010009 16 219 0.0 11.3 0.00 0.03 0.03 35 1010.7
20260506005516 17 215 0.0 4.8 0.00 0.03 0.03 36 1010.6
20260506005008 17 225 0.0 9.7 0.00 0.03 0.03 36 1010.5
20260506004520 16 175 0.0 12.9 0.00 0.03 0.03 37 1010.4
20260506004008 16 219 3.2 17.7 0.00 0.03 0.03 36 1010.5
20260506003508 17 191 1.6 17.7 0.00 0.03 0.03 35 1010.3
20260506003008 17 169 0.0 11.3 0.00 0.03 0.03 35 1010.5
20260506002509 17 253 0.0 6.4 0.00 0.03 0.03 35 1010.5
20260506002008 17 232 0.0 11.3 0.00 0.03 0.03 34 1010.5
20260506001508 17 175 1.6 11.3 0.00 0.03 0.03 33 1010.4
20260506001008 17 208 0.0 11.3 0.00 0.03 0.03 32 1010.4
20260506000507 17 228 0.0 6.4 0.00 0.03 0.03 33 1010.4
20260506000008 17 224 0.0 9.7 0.00 0.03 0.03 34 1010.4
20260505235507 17 219 1.6 9.7 0.00 0.03 0.03 35 1010.5
20260505235007 17 204 0.0 11.3 0.00 0.03 0.03 35 1010.4
20260505234509 17 190 1.6 11.3 0.00 0.03 0.03 35 1010.4
20260505234006 17 182 1.6 14.5 0.00 0.03 0.03 35 1010.3
20260505233506 17 167 1.6 14.5 0.00 0.03 0.03 34 1010.1
20260505233006 17 163 3.2 11.3 0.00 0.03 0.03 35 1010.2
20260505232506 17 231 0.0 14.5 0.00 0.03 0.03 35 1010.0
20260505232006 17 195 1.6 14.5 0.00 0.03 0.03 35 1010.2
20260505231508 17 155 1.6 17.7 0.00 0.03 0.03 34 1010.2
20260505231006 17 202 1.6 17.7 0.00 0.03 0.03 36 1010.1
20260505230506 17 199 0.0 16.1 0.00 0.03 0.03 34 1010.4
20260505230015 17 228 1.6 22.5 0.00 0.03 0.03 33 1010.1
20260505225507 17 180 4.8 14.5 0.00 0.03 0.03 32 1010.1
20260505225006 17 186 1.6 16.1 0.00 0.03 0.03 32 1010.0
20260505224506 17 196 1.6 16.1 0.00 0.03 0.03 32 1010.1
20260505224004 17 182 4.8 22.5 0.00 0.03 0.03 32 1010.2
20260505223504 18 202 3.2 22.5 0.00 0.03 0.03 32 1010.1
20260505223005 17 196 0.0 12.9 0.00 0.03 0.03 33 1010.2
20260505222504 17 163 1.6 11.3 0.00 0.03 0.03 33 1010.3
20260505222005 17 220 3.2 12.9 0.00 0.03 0.03 34 1010.5
20260505221504 17 181 1.6 17.7 0.00 0.03 0.03 36 1010.4
20260505221004 17 193 1.6 17.7 0.00 0.03 0.03 36 1010.5
20260505220503 17 157 3.2 17.7 0.00 0.03 0.03 36 1010.5
20260505220004 17 159 3.2 11.3 0.00 0.03 0.03 36 1010.4
20260505215505 17 238 0.0 19.3 0.00 0.03 0.03 37 1010.7
20260505215004 17 149 4.8 19.3 0.00 0.03 0.03 36 1010.6
20260505214613 17 209 3.2 14.5 0.00 0.03 0.03 36 1010.8
20260505214003 17 233 3.2 16.1 0.00 0.03 0.03 36 1010.8
20260505213503 17 199 1.6 16.1 0.00 0.03 0.03 36 1010.9
20260505213004 17 223 0.0 17.7 0.00 0.03 0.03 36 1010.8
20260505212503 18 168 0.0 17.7 0.00 0.03 0.03 34 1010.8
20260505212002 18 187 3.2 16.1 0.00 0.03 0.03 34 1011.1
20260505211502 18 217 6.4 17.7 0.00 0.03 0.03 34 1011.2
20260505211002 18 206 4.8 16.1 0.00 0.03 0.03 34 1011.0
20260505210501 18 257 4.8 17.7 0.00 0.03 0.03 34 1011.4
20260505210001 18 242 1.6 24.1 0.00 0.03 0.03 34 1011.2
20260505205503 18 210 4.8 24.1 0.00 0.03 0.03 32 1011.5
20260505205001 18 223 0.0 11.3 0.00 0.03 0.03 36 1011.3
20260505204501 18 159 1.6 16.1 0.00 0.03 0.03 37 1011.1
20260505204100 18 246 1.6 16.1 0.00 0.03 0.03 37 1011.3
20260505203601 18 184 1.6 16.1 0.00 0.03 0.03 38 1011.4
20260505203059 18 220 1.6 16.1 0.00 0.03 0.03 38 1011.2
20260505202601 17 202 3.2 20.9 0.00 0.03 0.03 42 1011.4
20260505202058 17 209 1.6 20.9 0.00 0.03 0.03 41 1011.4
20260505201557 17 182 3.2 19.3 0.00 0.03 0.03 42 1011.4
20260505201056 17 198 0.0 19.3 0.00 0.03 0.03 43 1011.4
20260505200556 17 198 0.0 9.7 0.00 0.03 0.03 46 1011.4
20260505200055 17 192 0.0 16.1 0.00 0.03 0.03 46 1011.5
20260505195555 17 198 1.6 17.7 0.00 0.03 0.03 46 1011.4
20260505195055 17 171 3.2 16.1 0.00 0.03 0.03 47 1011.4
20260505194556 17 227 0.0 16.1 0.00 0.03 0.03 47 1011.4
20260505194054 17 192 4.8 14.5 0.00 0.03 0.03 47 1011.5
20260505193553 17 200 1.6 14.5 0.00 0.03 0.03 47 1011.8
20260505193052 17 235 3.2 12.9 0.00 0.03 0.03 48 1011.9
20260505192551 17 206 1.6 8.0 0.00 0.03 0.03 48 1011.8
20260505192051 17 180 0.0 12.9 0.00 0.03 0.03 50 1011.7
20260505191555 17 209 3.2 22.5 0.00 0.03 0.03 48 1011.8
20260505191053 17 140 3.2 22.5 0.00 0.03 0.03 48 1011.7
20260505190554 17 226 3.2 17.7 0.00 0.03 0.03 48 1012.0
20260505190050 17 204 0.0 16.1 0.00 0.03 0.03 50 1012.1
20260505185550 16 202 4.8 16.1 0.00 0.03 0.03 50 1012.0
20260505185050 16 220 3.2 16.1 0.00 0.03 0.03 51 1012.0
20260505184549 16 225 3.2 19.3 0.00 0.03 0.03 49 1012.0
20260505184049 16 189 6.4 19.3 0.00 0.03 0.03 49 1012.1
20260505183548 16 206 0.0 14.5 0.00 0.03 0.03 50 1012.0
20260505183048 16 150 1.6 11.3 0.00 0.03 0.03 49 1011.7
20260505182548 17 151 1.6 12.9 0.00 0.03 0.03 48 1011.9
20260505182047 16 204 1.6 12.9 0.00 0.03 0.03 50 1012.1
20260505181606 16 188 0.0 11.3 0.00 0.03 0.03 51 1011.8
20260505181045 16 186 1.6 11.3 0.00 0.03 0.03 52 1012.0
20260505180543 16 160 1.6 16.1 0.00 0.03 0.03 53 1012.0
20260505180054 15 169 1.6 16.1 0.00 0.03 0.03 54 1011.9
20260505175541 15 178 3.2 9.7 0.00 0.03 0.03 54 1012.1
20260505175039 15 209 0.0 11.3 0.00 0.03 0.03 58 1012.1
20260505174543 14 232 1.6 11.3 0.00 0.03 0.03 58 1012.2
20260505174039 14 197 0.0 9.7 0.00 0.03 0.03 58 1012.1
20260505173538 14 249 1.6 11.3 0.00 0.03 0.03 58 1012.0
20260505173038 14 275 0.0 11.3 0.00 0.03 0.03 58 1012.1
20260505172538 14 204 1.6 11.3 0.00 0.03 0.03 57 1012.1
20260505172038 14 219 0.0 14.5 0.00 0.03 0.03 57 1011.8
20260505171542 14 192 1.6 22.5 0.00 0.03 0.03 57 1011.7
20260505171038 14 209 0.0 20.9 0.00 0.03 0.03 56 1011.8
20260505170538 14 191 4.8 20.9 0.00 0.03 0.03 56 1011.9
20260505170038 14 211 3.2 16.1 0.00 0.03 0.03 56 1011.9
20260505165541 14 214 1.6 11.3 0.00 0.03 0.03 56 1011.9
20260505165037 14 178 0.0 11.3 0.00 0.03 0.03 56 1011.9
20260505164537 14 217 3.2 20.9 0.00 0.03 0.03 56 1012.0
20260505164036 14 277 0.0 12.9 0.00 0.03 0.03 57 1011.9
20260505163535 14 215 1.6 12.9 0.00 0.03 0.03 59 1011.9
20260505163034 13 215 0.0 12.9 0.00 0.03 0.03 59 1011.8
20260505162534 13 217 0.0 12.9 0.00 0.03 0.03 59 1011.8
20260505162033 13 196 4.8 14.5 0.00 0.03 0.03 59 1011.8
20260505161533 13 210 0.0 11.3 0.00 0.03 0.03 60 1011.7
20260505161032 13 208 1.6 11.3 0.00 0.03 0.03 60 1011.7
20260505160532 13 223 1.6 9.7 0.00 0.03 0.03 64 1011.8
20260505153036 12 161 0.0 22.5 0.00 0.03 0.03 68 1011.5
20260505152528 12 148 1.6 22.5 0.00 0.03 0.03 67 1011.5
20260505152026 12 215 1.6 11.3 0.00 0.03 0.03 68 1011.4
20260505151526 12 257 3.2 11.3 0.00 0.03 0.03 68 1011.4
20260505151026 12 192 0.0 11.3 0.00 0.03 0.03 68 1011.2
20260505150526 12 163 1.6 14.5 0.00 0.03 0.03 69 1011.2
20260505140520 10 175 0.0 3.2 0.03 0.03 0.03 76 1010.8
20260505125007 13 211 0.0 1.6 0.00 0.00 0.00 59 1010.0
20260505124508 13 230 0.0 1.6 0.00 0.00 0.00 60 1010.0
20260505124007 13 163 0.0 3.2 0.00 0.00 0.00 61 1009.9
20260505123508 13 154 0.0 3.2 0.00 0.00 0.00 61 1009.8
20260505123005 13 154 0.0 6.4 0.00 0.00 0.00 62 1009.7
20260505122504 13 232 0.0 6.4 0.00 0.00 0.00 62 1009.7
20260505122004 13 157 0.0 6.4 0.00 0.00 0.00 62 1010.0
20260505121504 13 153 1.6 9.7 0.00 0.00 0.00 62 1010.2
20260505121004 13 216 0.0 9.7 0.00 0.00 0.00 63 1010.1
20260505120502 13 210 1.6 9.7 0.00 0.00 0.00 61 1010.3
20260505120003 13 234 0.0 8.0 0.00 0.00 0.00 53 1010.0
20260505115502 13 199 0.0 3.2 0.00 0.00 0.00 58 1009.9
20260505115002 13 200 0.0 4.8 0.00 0.00 0.00 58 1010.0
20260505114502 13 217 0.0 4.8 0.00 0.00 0.00 56 1010.3
20260505114002 13 207 0.0 12.9 0.00 0.00 0.00 57 1010.2
20260505113603 13 216 0.0 12.9 0.00 0.00 0.00 56 1010.7
20260505113101 13 165 0.0 11.3 0.00 0.00 0.00 55 1010.6
20260505112559 13 213 0.0 11.3 0.00 0.00 0.00 57 1010.6
20260505112059 13 168 0.0 3.2 0.00 0.00 0.00 59 1010.8
20260505111603 13 229 0.0 6.4 0.00 0.00 0.00 59 1010.8
20260505111059 13 213 0.0 9.7 0.00 0.00 0.00 60 1010.8
20260505110558 13 232 0.0 3.2 0.00 0.00 0.00 60 1010.9
20260505110113 13 229 0.0 6.4 0.00 0.00 0.00 60 1011.0
20260505102055 13 217 0.0 4.8 0.00 0.00 0.00 52 1011.3
20260505101556 13 206 0.0 1.6 0.00 0.00 0.00 46 1011.6
20260505101051 13 197 0.0 1.6 0.00 0.00 0.00 46 1011.6
20260505100551 13 28 0.0 0.0 0.00 0.00 0.00 45 1011.6
20260505100050 13 29 0.0 0.0 0.00 0.00 0.00 45 1011.6
20260505095549 13 29 0.0 0.0 0.00 0.00 0.00 43 1011.8
20260505095049 13 29 0.0 0.0 0.00 0.00 0.00 43 1011.8
20260505094547 13 29 0.0 0.0 0.00 0.00 0.00 42 1011.9
20260505094047 13 29 0.0 0.0 0.00 0.00 0.00 41 1011.9
20260505093545 13 10 0.0 0.0 0.00 0.00 0.00 41 1012.1
20260505093048 13 10 0.0 0.0 0.00 0.00 0.00 40 1012.1
20260505092543 13 10 0.0 0.0 0.00 0.00 0.00 39 1012.4
20260505092042 14 10 0.0 0.0 0.00 0.00 0.00 39 1012.3
20260505091552 14 10 0.0 0.0 0.00 0.00 0.00 38 1012.3
20260505091041 14 10 0.0 4.8 0.00 0.00 0.00 35 1012.3
20260505090541 14 10 0.0 4.8 0.00 0.00 0.00 35 1012.4
20260505090041 14 212 0.0 0.0 0.00 0.00 0.00 33 1012.6
20260505085542 14 207 0.0 0.0 0.00 0.00 0.00 33 1012.4
20260505085042 14 207 0.0 1.6 0.00 0.00 0.00 33 1012.4
20260505084544 14 207 0.0 1.6 0.00 0.00 0.00 31 1012.5
20260505084039 14 231 0.0 0.0 0.00 0.00 0.00 34 1012.7
20260505083540 14 231 0.0 0.0 0.00 0.00 0.00 34 1012.8
20260505083051 14 231 0.0 0.0 0.00 0.00 0.00 34 1012.8
20260505082538 14 231 0.0 0.0 0.00 0.00 0.00 33 1012.8
20260505082037 14 231 0.0 0.0 0.00 0.00 0.00 35 1012.8
20260505081537 14 231 0.0 1.6 0.00 0.00 0.00 34 1012.9
20260505081037 14 231 0.0 1.6 0.00 0.00 0.00 36 1013.0
20260505080536 14 213 0.0 4.8 0.00 0.00 0.00 36 1012.9
20260505080036 15 249 0.0 4.8 0.00 0.00 0.00 35 1012.8
20260505075538 15 225 0.0 1.6 0.00 0.00 0.00 34 1012.5
20260505075034 15 224 0.0 4.8 0.00 0.00 0.00 34 1012.6
20260505074535 15 248 0.0 8.0 0.00 0.00 0.00 34 1012.6
20260505074034 15 227 0.0 9.7 0.00 0.00 0.00 36 1012.9
20260505073533 15 207 0.0 9.7 0.00 0.00 0.00 37 1013.1
20260505073032 15 255 0.0 16.1 0.00 0.00 0.00 37 1013.1
20260505072532 15 202 0.0 16.1 0.00 0.00 0.00 37 1013.2
20260505072030 15 355 0.0 6.4 0.00 0.00 0.00 37 1013.3
20260505071530 15 236 0.0 4.8 0.00 0.00 0.00 36 1012.8
20260505071029 15 206 0.0 4.8 0.00 0.00 0.00 36 1013.2
20260505070533 15 202 0.0 1.6 0.00 0.00 0.00 37 1013.3
20260505070030 15 201 0.0 9.7 0.00 0.00 0.00 36 1013.1
20260505065528 15 229 0.0 9.7 0.00 0.00 0.00 36 1013.0
20260505065027 15 196 0.0 9.7 0.00 0.00 0.00 37 1013.2
20260505064533 15 188 0.0 4.8 0.00 0.00 0.00 36 1013.2
20260505064027 15 246 0.0 9.7 0.00 0.00 0.00 36 1013.0
20260505063527 15 209 0.0 6.4 0.00 0.00 0.00 37 1013.0
20260505063027 15 215 0.0 6.4 0.00 0.00 0.00 36 1012.9
20260505062528 15 242 0.0 12.9 0.00 0.00 0.00 37 1012.9
20260505062026 15 209 1.6 12.9 0.00 0.00 0.00 36 1012.8
20260505061527 15 209 0.0 8.0 0.00 0.00 0.00 36 1013.1
20260505061026 15 245 0.0 9.7 0.00 0.00 0.00 36 1013.3
20260505060526 16 236 0.0 9.7 0.00 0.00 0.00 35 1013.4
20260505060026 16 238 0.0 4.8 0.00 0.00 0.00 35 1013.3
20260505055526 16 210 0.0 8.0 0.00 0.00 0.00 34 1013.4
20260505055026 16 216 0.0 8.0 0.00 0.00 0.00 35 1013.4
20260505054542 16 235 0.0 3.2 0.00 0.00 0.00 34 1013.3
20260505054025 16 187 0.0 4.8 0.00 0.00 0.00 35 1013.2
20260505053525 16 229 0.0 9.7 0.00 0.00 0.00 34 1013.2
20260505053025 16 250 0.0 12.9 0.00 0.00 0.00 35 1013.4
20260505052525 16 275 0.0 12.9 0.00 0.00 0.00 35 1013.2
20260505052025 16 207 0.0 6.4 0.00 0.00 0.00 35 1013.3
20260505051525 16 246 0.0 9.7 0.00 0.00 0.00 35 1013.4
20260505051025 15 204 0.0 9.7 0.00 0.00 0.00 35 1013.3
20260505050524 15 204 0.0 9.7 0.00 0.00 0.00 35 1013.4